Location: Dresden
(51.0483°N, 13.7137°E)
Time: 20:13:23
(UTC+01:00)

ISS - Pass Details

Date: 13 November 2017
Orbit: 402 x 407 km, 51.6° (Epoch: 22 November)

Event Time Altitude Azimuth Distance (km) Brightness Sun altitude
Exits shadow 05:02:32 57° 139° (SE) 478 -3.4 -21.2°
Drops below altitude 10° 05:05:17 10° 113° (ESE) 1,454 0.0 -20.8°
Sets 05:07:22 0° 111° (ESE) 2,312 1.3 -20.5°
